Regional Weather Roundup
Issued by NWS

Home | Current Version | Previous Version | Graphics & Text | Print | Product List | Glossary On
Versions: 1 2 3 4 5 6 7 8 9 10 11 12 13 14 15 16 17 18 19 20 21 22 23 24 25 26 27 28 29 30 31 32 33 34 35 36 37 38 39 40 41 42 43 44 45 46 47 48 49 50
000
ASUS45 KBOI 032010
RWRID

IDAHO REGIONAL WEATHER ROUNDUP
NATIONAL WEATHER SERVICE BOISE ID
200 PM MDT THU SEP 03 2015

NOTE: "FAIR" INDICATES FEW OR NO CLOUDS BELOW 12000 FEET
WITH NO SIGNIFICANT WEATHER AND/OR OBSTRUCTIONS TO VISIBILITY

IDZ012-014-032100-
SOUTHWEST IDAHO


CITY           SKY/WX    TMP DP  RH WIND       PRES   REMARKS
BOISE          PTSUNNY   63  41  44 NW18      29.92F
CALDWELL       PTSUNNY   61  36  39 NW12      29.96F
MOUNTAIN HOME  MOSUNNY   71  40  32 NW21G26   29.89F
$$

IDZ016-017-032100-
SOUTHCENTRAL IDAHO


CITY           SKY/WX    TMP DP  RH WIND       PRES   REMARKS
BURLEY         SUNNY     71  43  36 W9        29.88F
JEROME         MOSUNNY   67  44  43 W13       29.91F
TWIN FALLS     MOSUNNY   72  41  32 W16G22    29.90F
$$

IDZ019>023-032100-
SOUTHEAST IDAHO


CITY           SKY/WX    TMP DP  RH WIND       PRES   REMARKS
IDAHO FALLS    MOSUNNY   76  39  26 SW12      29.88F
POCATELLO      MOSUNNY   77  39  25 W14G22    29.89F
REXBURG        MOSUNNY   78  36  21 SW15G23   29.88F
$$

IDZ006-010-011-018-031-032-032100-
CENTRAL IDAHO MOUNTAINS


CITY           SKY/WX    TMP DP  RH WIND       PRES   REMARKS
MCCALL         CLOUDY    49  41  74 S6        29.98R
HAILEY         PTSUNNY   66  37  34 SW12      29.95S
STANLEY          N/A     64  31  28 VRB3      29.94F
SALMON         CLOUDY    64  43  45 NW3       29.83F
CHALLIS        CLOUDY    71  32  23 S14       29.83F
$$

IDZ002-004-006-007-026-032100-
NORTHERN IDAHO


CITY           SKY/WX    TMP DP  RH WIND       PRES   REMARKS
LEWISTON       CLOUDY    60  44  55 VRB5      29.97F
LOWELL           N/A     56  53  90 CALM      29.97S
COEUR D`ALENE  MOSUNNY   61  36  39 SW5       29.94S
MULLAN PASS    CLOUDY    43  37  79 VRB5      29.99S
$$


USA.gov is the U.S. government's official web portal to all federal, state and local government web resources and services.